Regional Weather Roundup
Issued by NWS

Home | Current Version | Previous Version | Text Only | Print | Product List | Glossary On
Versions: 1 2 3 4 5 6 7 8 9 10 11 12 13 14 15 16 17 18 19 20 21 22 23 24 25 26 27 28 29 30 31 32 33 34 35 36 37 38 39 40 41 42 43 44 45 46 47 48 49 50
000
ASUS43 KDTX 131310
RWRMI
MICHIGAN HOURLY REGIONAL WEATHER ROUNDUP
NATIONAL WEATHER SERVICE DETROIT/PONTIAC MI
900 AM EDT SUN JUL 13 2014

NOTE: "FAIR" INDICATES FEW OR NO CLOUDS BELOW 12,000 FEET WITH NO
SIGNIFICANT WEATHER AND/OR OBSTRUCTION TO VISIBILITY.

MIZ047>049-052>055-059>063-066>070-074>076-081>083-131400-
SOUTHEAST LOWER MICHIGAN

CITY           SKY/WX    TMP DP  RH WIND       PRES   REMARKS
ADRIAN         PTSUNNY   73  69  87 NW14      29.88R
ALMA           SUNNY     71  64  77 W6        29.85R
ANN ARBOR      CLOUDY    72  68  87 W9        29.85R
BAD AXE        PTSUNNY   72  68  88 W10       29.80R
DETROIT CITY   HVY RAIN  73  69  87 NW9       29.82R FOG
DETROIT        CLOUDY    72  69  90 SW12      29.83R
FLINT          CLOUDY    73  68  84 W13G21    29.83R
GROSSE ILE     LGT RAIN  73  70  88 W9G20     29.81F
HILLSDALE      CLOUDY    71  71 100 W10G16    29.90R
HOWELL         CLOUDY    71  68  92 W12       29.85R

CITY           SKY/WX    TMP DP  RH WIND       PRES   REMARKS
JACKSON        CLOUDY    71  68  90 W9        29.88R
LAMBERTVILLE   CLOUDY    75  70  83 W12G24    29.86R
LANSING        PTSUNNY   70  66  87 W13       29.87R
LAPEER         NOT AVBL
MASON          CLOUDY    70  67  90 W9        29.87R
MONROE         CLOUDY    73  70  88 W16G28    29.82R
MT. CLEMENS    LGT RAIN  73  71  93 W8        29.80S
PONTIAC        CLOUDY    72  67  84 W13       29.83R
PORT HOPE        N/A     73  66  78 VRB7G17   29.76R
PORT HURON     CLOUDY    73  68  83 W6        29.80S
TRI CITIES     SUNNY     74  66  76 W13       29.82R
YPSILANTI      CLOUDY    75  68  78 W13       29.84R
$$
MIZ043>046-050>051-056>058-064>065-071>073-077>080-131400-
SOUTHWEST LOWER MICHIGAN

CITY           SKY/WX    TMP DP  RH WIND       PRES   REMARKS
BATTLE CREEK   PTSUNNY   71  66  84 W13       29.91R
BENTON HARBOR  PTSUNNY   67  64  90 W7        29.94R
BIG RAPIDS     SUNNY     67  65  92 NW9G21    29.85R
COLDWATER      CLOUDY    72  70  93 W10       29.91R
HOLLAND        PTSUNNY   68  63  84 W7        29.91R
GRAND RAPIDS   PTSUNNY   69  64  84 W8        29.89R
KALAMAZOO      CLOUDY    70  65  84 NW10      29.91R
MARSHALL       CLOUDY    70  67  92 W14G20    29.89R
MUSKEGON       MOSUNNY   69  63  81 W8        29.89R
$$
MIZ016>042-131400-
NORTHERN LOWER MICHIGAN

CITY           SKY/WX    TMP DP  RH WIND       PRES   REMARKS
ALPENA         MOSUNNY   69  63  81 W9        29.75R
BEAVER ISLAND  CLOUDY    63  62  98 SW12G18   29.78S
BELLAIRE       CLOUDY    65  62  90 W3        29.80R
CADILLAC       CLOUDY    63  62  95 W14       29.85R
CHARLEVOIX     MOSUNNY   65  63  94 W14G21    29.82R
FRANKFORT      CLOUDY    63  60  90 W5        29.85R
GAYLORD        CLOUDY    64  61  90 W10       29.81R
GRAYLING       CLOUDY    64  64  98 W8        29.81S
HARBOR SPRINGS CLOUDY    62  61  96 W9G16     29.78R
HOUGHTON LAKE  PTSUNNY   67  62  84 W14       29.82R
MANISTEE       PTSUNNY   64  61  88 W9        29.87R
OSCODA         SUNNY     73  64  73 W14       29.76R
PELLSTON       CLOUDY    64  62  93 W10       29.78R
TRAVERSE CITY  MOSUNNY   68  62  81 W9        29.81R
$$
MIZ007>008-015-131400-
EASTERN UPPER MICHIGAN

CITY           SKY/WX    TMP DP  RH WIND       PRES   REMARKS
KINROSS        PTSUNNY   64  63  94 W7        29.75R
MACKINAC ISLAN CLOUDY    62  62  99 W9        29.76R
NEWBERRY       CLOUDY    63  61  94 W16       29.75R
S. S. MARIE    CLOUDY    60  58  92 W6        29.73R
$$
MIZ004>006-011>014-085-131400-
CENTRAL UPPER MICHIGAN

CITY           SKY/WX    TMP DP  RH WIND       PRES   REMARKS
MANISTIQUE     PTSUNNY   64  59  83 NW14G21   29.77R
ESCANABA       PTSUNNY   63  57  82 W10       29.80R
MENOMINEE      SUNNY     64  61  88 W7        29.82S
SAWYER-GWINN   MOSUNNY   61  54  77 NW13G20   29.81R
$$
MIZ001>003-009>011-084-131400-
WESTERN UPPER MICHIGAN

CITY           SKY/WX    TMP DP  RH WIND       PRES   REMARKS
IRON MOUNTAIN  CLOUDY    63  57  81 NW12G20   29.83R
HOUGHTON       SUNNY     56  47  71 W16       29.82R
COPPER HARBOR    N/A     58  49  72 N14G22    29.79R
IRONWOOD       MOSUNNY   57  48  72 W9        29.88R
$$

ABBREVIATIONS USED IN REMARKS
   TC - TEMPERATURE IN CELSIUS
  WCI - WIND CHILL INDEX
   HX - HEAT INDEX
  VSB - VISIBILITY



USA.gov is the U.S. government's official web portal to all federal, state and local government web resources and services.